owner,sensor,date,latitude,longitude,vertical_datum,direction_of_sea_water_velocity,sea_water_speed,upward_sea_water_velocity,qcFlag 
TABS,ioos:station:wmo:42048:1,2002-10-01T00:00:00Z,27.9396,-96.8429,2.0,193.6089266,10.41234364,-99999.0,'11111222,11111222,99999999' 
TABS,ioos:station:wmo:42048:1,2002-10-01T00:30:00Z,27.9396,-96.8429,2.0,214.554968,10.10224233,-99999.0,'11111222,11111222,99999999' 
TABS,ioos:station:wmo:42048:1,2002-10-01T01:00:00Z,27.9396,-96.8429,2.0,204.307507,10.44607103,-99999.0,'11111222,11111222,99999999' 
TABS,ioos:station:wmo:42048:1,2002-10-01T01:30:00Z,27.9396,-96.8429,2.0,218.0213038,12.33849261,-99999.0,'11111222,11111222,99999999' 
TABS,ioos:station:wmo:42048:1,2002-10-01T02:00:00Z,27.9396,-96.8429,2.0,232.585838,9.480427206,-99999.0,'11133222,11111222,99999999' 
TABS,ioos:station:wmo:42048:1,2002-10-01T02:30:00Z,27.9396,-96.8429,2.0,222.8885654,9.021734866,-99999.0,'11133222,11111222,99999999' 
TABS,ioos:station:wmo:42048:1,2002-10-01T03:00:00Z,27.9396,-96.8429,2.0,235.1140572,9.703818836,-99999.0,'11133222,11111222,99999999' 
TABS,ioos:station:wmo:42048:1,2002-10-01T03:30:00Z,27.9396,-96.8429,2.0,234.9120971,12.28194203,-99999.0,'11111222,11111222,99999999' 
TABS,ioos:station:wmo:42048:1,2002-10-01T04:00:00Z,27.9396,-96.8429,2.0,241.6054955,12.04960165,-99999.0,'11111222,11111222,99999999' 
TABS,ioos:station:wmo:42048:1,2002-10-01T04:30:00Z,27.9396,-96.8429,2.0,234.441518,13.01741142,-99999.0,'11111222,11111222,99999999' 
TABS,ioos:station:wmo:42048:1,2002-10-01T05:00:00Z,27.9396,-96.8429,2.0,249.5249782,9.062505172,-99999.0,'11133222,11111222,99999999' 
TABS,ioos:station:wmo:42048:1,2002-10-01T05:30:00Z,27.9396,-96.8429,2.0,244.3175591,7.545389321,-99999.0,'11133222,11111222,99999999' 
TABS,ioos:station:wmo:42048:1,2002-10-01T06:00:00Z,27.9396,-96.8429,2.0,241.2909889,8.847604195,-99999.0,'11133222,11111222,99999999' 
TABS,ioos:station:wmo:42048:1,2002-10-01T06:30:00Z,27.9396,-96.8429,2.0,230.839163,6.254998002,-99999.0,'11133222,11111222,99999999' 
TABS,ioos:station:wmo:42048:1,2002-10-01T07:00:00Z,27.9396,-96.8429,2.0,233.0207889,4.206007608,-99999.0,'11133222,11111222,99999999' 
TABS,ioos:station:wmo:42048:1,2002-10-01T07:30:00Z,27.9396,-96.8429,2.0,225.5726217,4.242852814,-99999.0,'11133222,11111222,99999999' 
TABS,ioos:station:wmo:42048:1,2002-10-01T08:00:00Z,27.9396,-96.8429,2.0,185.6886335,2.622918222,-99999.0,'11133222,11111222,99999999' 
TABS,ioos:station:wmo:42048:1,2002-10-01T08:30:00Z,27.9396,-96.8429,2.0,196.0151917,1.123610253,-99999.0,'11133222,11111222,99999999' 
TABS,ioos:station:wmo:42048:1,2002-10-01T09:00:00Z,27.9396,-96.8429,2.0,135.7178477,2.821577573,-99999.0,'11133222,11111222,99999999' 
TABS,ioos:station:wmo:42048:1,2002-10-01T09:30:00Z,27.9396,-96.8429,2.0,148.0917572,1.248679302,-99999.0,'11133222,11111222,99999999' 
TABS,ioos:station:wmo:42048:1,2002-10-01T10:00:00Z,27.9396,-96.8429,2.0,116.6817996,4.387174489,-99999.0,'11133222,11111222,99999999' 
TABS,ioos:station:wmo:42048:1,2002-10-01T10:30:00Z,27.9396,-96.8429,2.0,127.7467171,5.488642819,-99999.0,'11133222,11111222,99999999' 
TABS,ioos:station:wmo:42048:1,2002-10-01T11:00:00Z,27.9396,-96.8429,2.0,129.0031099,5.211612035,-99999.0,'11133222,11111222,99999999' 
TABS,ioos:station:wmo:42048:1,2002-10-01T11:30:00Z,27.9396,-96.8429,2.0,125.3801895,5.077716022,-99999.0,'11133222,11111222,99999999' 
TABS,ioos:station:wmo:42048:1,2002-10-01T12:00:00Z,27.9396,-96.8429,2.0,118.463597,4.049506143,-99999.0,'11133222,11111222,99999999' 
TABS,ioos:station:wmo:42048:1,2002-10-01T12:30:00Z,27.9396,-96.8429,2.0,133.0797195,6.11991013,-99999.0,'11133222,11111222,99999999' 
TABS,ioos:station:wmo:42048:1,2002-10-01T13:00:00Z,27.9396,-96.8429,2.0,114.2380011,7.599953947,-99999.0,'11133222,11111222,99999999' 
TABS,ioos:station:wmo:42048:1,2002-10-01T13:30:00Z,27.9396,-96.8429,2.0,124.6852057,7.345338658,-99999.0,'11133222,11111222,99999999' 
TABS,ioos:station:wmo:42048:1,2002-10-01T14:00:00Z,27.9396,-96.8429,2.0,102.310734,7.4103981,-99999.0,'11133222,11111222,99999999' 
TABS,ioos:station:wmo:42048:1,2002-10-01T14:30:00Z,27.9396,-96.8429,2.0,114.8016222,12.06259093,-99999.0,'11111222,11111222,99999999' 
TABS,ioos:station:wmo:42048:1,2002-10-01T15:00:00Z,27.9396,-96.8429,2.0,115.3561995,10.81155863,-99999.0,'11111222,11111222,99999999' 
TABS,ioos:station:wmo:42048:1,2002-10-01T15:30:00Z,27.9396,-96.8429,2.0,118.9149824,12.76079151,-99999.0,'11111222,11111222,99999999' 
TABS,ioos:station:wmo:42048:1,2002-10-01T16:00:00Z,27.9396,-96.8429,2.0,121.1601435,12.50403535,-99999.0,'11111222,11111222,99999999' 
TABS,ioos:station:wmo:42048:1,2002-10-01T16:30:00Z,27.9396,-96.8429,2.0,118.5319875,12.2474528,-99999.0,'11111222,11111222,99999999' 
TABS,ioos:station:wmo:42048:1,2002-10-01T17:00:00Z,27.9396,-96.8429,2.0,112.3749911,12.24165022,-99999.0,'11111222,11111222,99999999' 
TABS,ioos:station:wmo:42048:1,2002-10-01T17:30:00Z,27.9396,-96.8429,2.0,126.4744656,11.30426911,-99999.0,'11111222,11111222,99999999' 
TABS,ioos:station:wmo:42048:1,2002-10-01T18:00:00Z,27.9396,-96.8429,2.0,117.4941487,11.30704648,-99999.0,'11111222,11111222,99999999' 
TABS,ioos:station:wmo:42048:1,2002-10-01T18:30:00Z,27.9396,-96.8429,2.0,119.7365176,8.568319555,-99999.0,'11133222,11111222,99999999' 
TABS,ioos:station:wmo:42048:1,2002-10-01T19:00:00Z,27.9396,-96.8429,2.0,108.7663161,9.29408952,-99999.0,'11133222,11111222,99999999' 
TABS,ioos:station:wmo:42048:1,2002-10-01T19:30:00Z,27.9396,-96.8429,2.0,116.0665237,8.738884368,-99999.0,'11133222,11111222,99999999' 
TABS,ioos:station:wmo:42048:1,2002-10-01T20:00:00Z,27.9396,-96.8429,2.0,129.4800613,6.763017078,-99999.0,'11133222,11111222,99999999' 
TABS,ioos:station:wmo:42048:1,2002-10-01T20:30:00Z,27.9396,-96.8429,2.0,132.8675313,7.98169155,-99999.0,'11133222,11111222,99999999' 
TABS,ioos:station:wmo:42048:1,2002-10-01T21:00:00Z,27.9396,-96.8429,2.0,93.35987993,5.118798687,-99999.0,'11133222,11111222,99999999' 
TABS,ioos:station:wmo:42048:1,2002-10-01T21:30:00Z,27.9396,-96.8429,2.0,120.3431779,6.651105171,-99999.0,'11133222,11111222,99999999' 
TABS,ioos:station:wmo:42048:1,2002-10-01T22:00:00Z,27.9396,-96.8429,2.0,133.0334348,3.297059296,-99999.0,'11133222,11111222,99999999' 
TABS,ioos:station:wmo:42048:1,2002-10-01T22:30:00Z,27.9396,-96.8429,2.0,145.9742518,3.788667312,-99999.0,'11133222,11111222,99999999' 
TABS,ioos:station:wmo:42048:1,2002-10-01T23:00:00Z,27.9396,-96.8429,2.0,143.8612649,4.544370143,-99999.0,'11133222,11111222,99999999' 
TABS,ioos:station:wmo:42048:1,2002-10-01T23:30:00Z,27.9396,-96.8429,2.0,182.7333148,3.774294636,-99999.0,'11133222,11111222,99999999' 
TABS,ioos:station:wmo:42048:1,2002-10-02T00:00:00Z,27.9396,-96.8429,2.0,201.8145505,7.938475924,-99999.0,'11133222,11111222,99999999' 
TABS,ioos:station:wmo:42048:1,2002-10-02T00:30:00Z,27.9396,-96.8429,2.0,203.9393042,5.076731232,-99999.0,'11133222,11111222,99999999' 
TABS,ioos:station:wmo:42048:1,2002-10-02T01:00:00Z,27.9396,-96.8429,2.0,214.0524041,5.696885114,-99999.0,'11133222,11111222,99999999' 
TABS,ioos:station:wmo:42048:1,2002-10-02T01:30:00Z,27.9396,-96.8429,2.0,207.8786685,4.875910171,-99999.0,'11133222,11111222,99999999' 
TABS,ioos:station:wmo:42048:1,2002-10-02T02:00:00Z,27.9396,-96.8429,2.0,217.8837604,5.536867345,-99999.0,'11133222,11111222,99999999' 
TABS,ioos:station:wmo:42048:1,2002-10-02T02:30:00Z,27.9396,-96.8429,2.0,220.3209541,5.548062725,-99999.0,'11133222,11111222,99999999' 
TABS,ioos:station:wmo:42048:1,2002-10-02T03:00:00Z,27.9396,-96.8429,2.0,239.8713303,6.116289725,-99999.0,'11133222,11111222,99999999' 
TABS,ioos:station:wmo:42048:1,2002-10-02T03:30:00Z,27.9396,-96.8429,2.0,244.0388724,6.784607579,-99999.0,'11133222,11111222,99999999' 
TABS,ioos:station:wmo:42048:1,2002-10-02T04:00:00Z,27.9396,-96.8429,2.0,231.3094064,8.814448366,-99999.0,'11133222,11111222,99999999' 
TABS,ioos:station:wmo:42048:1,2002-10-02T04:30:00Z,27.9396,-96.8429,2.0,233.9236519,8.660831369,-99999.0,'11133222,11111222,99999999' 
TABS,ioos:station:wmo:42048:1,2002-10-02T05:00:00Z,27.9396,-96.8429,2.0,238.3116007,10.71780295,-99999.0,'11111222,11111222,99999999' 
TABS,ioos:station:wmo:42048:1,2002-10-02T05:30:00Z,27.9396,-96.8429,2.0,235.0139142,7.482045175,-99999.0,'11133222,11111222,99999999' 
TABS,ioos:station:wmo:42048:1,2002-10-02T06:00:00Z,27.9396,-96.8429,2.0,237.9387935,9.852684913,-99999.0,'11133222,11111222,99999999' 
TABS,ioos:station:wmo:42048:1,2002-10-02T06:30:00Z,27.9396,-96.8429,2.0,239.4903611,9.297230771,-99999.0,'11133222,11111222,99999999' 
TABS,ioos:station:wmo:42048:1,2002-10-02T07:00:00Z,27.9396,-96.8429,2.0,229.7075255,9.04613177,-99999.0,'11133222,11111222,99999999' 
TABS,ioos:station:wmo:42048:1,2002-10-02T07:30:00Z,27.9396,-96.8429,2.0,243.5778288,8.944299861,-99999.0,'11133222,11111222,99999999' 
TABS,ioos:station:wmo:42048:1,2002-10-02T08:00:00Z,27.9396,-96.8429,2.0,221.0846365,6.938767902,-99999.0,'11133222,11111222,99999999' 
TABS,ioos:station:wmo:42048:1,2002-10-02T08:30:00Z,27.9396,-96.8429,2.0,220.0973237,7.033157186,-99999.0,'11133222,11111222,99999999' 
TABS,ioos:station:wmo:42048:1,2002-10-02T09:00:00Z,27.9396,-96.8429,2.0,217.346675,5.044174858,-99999.0,'11133222,11111222,99999999' 
TABS,ioos:station:wmo:42048:1,2002-10-02T09:30:00Z,27.9396,-96.8429,2.0,195.5495573,7.162150515,-99999.0,'11133222,11111222,99999999' 
TABS,ioos:station:wmo:42048:1,2002-10-02T10:00:00Z,27.9396,-96.8429,2.0,200.4839477,8.401220149,-99999.0,'11133222,11111222,99999999' 
TABS,ioos:station:wmo:42048:1,2002-10-02T10:30:00Z,27.9396,-96.8429,2.0,199.4607762,10.59532916,-99999.0,'11111222,11111222,99999999' 
TABS,ioos:station:wmo:42048:1,2002-10-02T11:00:00Z,27.9396,-96.8429,2.0,190.9948875,9.280355597,-99999.0,'11133222,11111222,99999999' 
TABS,ioos:station:wmo:42048:1,2002-10-02T11:30:00Z,27.9396,-96.8429,2.0,191.1926976,13.44575026,-99999.0,'11111222,11111222,99999999' 
TABS,ioos:station:wmo:42048:1,2002-10-02T12:00:00Z,27.9396,-96.8429,2.0,185.5570088,14.86988904,-99999.0,'11111222,11111222,99999999' 
TABS,ioos:station:wmo:42048:1,2002-10-02T12:30:00Z,27.9396,-96.8429,2.0,176.5661672,14.02517736,-99999.0,'11111222,11111222,99999999' 
TABS,ioos:station:wmo:42048:1,2002-10-02T13:00:00Z,27.9396,-96.8429,2.0,176.7187197,18.52035907,-99999.0,'11111222,11111222,99999999' 
TABS,ioos:station:wmo:42048:1,2002-10-02T13:30:00Z,27.9396,-96.8429,2.0,184.8862402,15.49632214,-99999.0,'11111222,11111222,99999999' 
TABS,ioos:station:wmo:42048:1,2002-10-02T14:00:00Z,27.9396,-96.8429,2.0,181.7687037,16.19771898,-99999.0,'11111222,11111222,99999999' 
TABS,ioos:station:wmo:42048:1,2002-10-02T14:30:00Z,27.9396,-96.8429,2.0,186.1516185,21.83574363,-99999.0,'11111222,11111222,99999999' 
TABS,ioos:station:wmo:42048:1,2002-10-02T15:00:00Z,27.9396,-96.8429,2.0,185.6890421,21.38534077,-99999.0,'11111222,11111222,99999999' 
TABS,ioos:station:wmo:42048:1,2002-10-02T15:30:00Z,27.9396,-96.8429,2.0,190.1155923,22.77402907,-99999.0,'11111222,11111222,99999999' 
TABS,ioos:station:wmo:42048:1,2002-10-02T16:00:00Z,27.9396,-96.8429,2.0,195.1551168,26.69856363,-99999.0,'11111222,11111222,99999999' 
TABS,ioos:station:wmo:42048:1,2002-10-02T16:30:00Z,27.9396,-96.8429,2.0,195.8639642,27.14384829,-99999.0,'11111222,11111222,99999999' 
TABS,ioos:station:wmo:42048:1,2002-10-02T17:00:00Z,27.9396,-96.8429,2.0,197.3949971,27.36136875,-99999.0,'11111222,11111222,99999999' 
TABS,ioos:station:wmo:42048:1,2002-10-02T21:00:00Z,27.9396,-96.8429,2.0,230.0847829,34.2243203,-99999.0,'11111222,11111222,99999999' 
TABS,ioos:station:wmo:42048:1,2002-10-02T21:30:00Z,27.9396,-96.8429,2.0,234.0745023,34.20664994,-99999.0,'11111222,11111222,99999999' 
TABS,ioos:station:wmo:42048:1,2002-10-02T22:00:00Z,27.9396,-96.8429,2.0,234.5140632,37.08882446,-99999.0,'11111222,11111222,99999999' 
TABS,ioos:station:wmo:42048:1,2002-10-02T22:30:00Z,27.9396,-96.8429,2.0,228.9060094,40.89507061,-99999.0,'11111222,11111222,99999999' 
TABS,ioos:station:wmo:42048:1,2002-10-02T23:00:00Z,27.9396,-96.8429,2.0,231.6204449,43.05293718,-99999.0,'11111222,11111222,99999999' 
TABS,ioos:station:wmo:42048:1,2002-10-02T23:30:00Z,27.9396,-96.8429,2.0,232.1189869,44.10286272,-99999.0,'11111222,11111222,99999999' 
TABS,ioos:station:wmo:42048:1,2002-10-03T00:00:00Z,27.9396,-96.8429,2.0,226.2301891,47.41537303,-99999.0,'11111222,11111222,99999999' 
TABS,ioos:station:wmo:42048:1,2002-10-03T00:30:00Z,27.9396,-96.8429,2.0,226.5474096,51.05052106,-99999.0,'11111222,11111222,99999999' 
TABS,ioos:station:wmo:42048:1,2002-10-03T01:00:00Z,27.9396,-96.8429,2.0,225.8148265,54.17693328,-99999.0,'11111222,11111222,99999999' 
TABS,ioos:station:wmo:42048:1,2002-10-03T01:30:00Z,27.9396,-96.8429,2.0,227.8967742,51.90433604,-99999.0,'11111222,11111222,99999999' 
TABS,ioos:station:wmo:42048:1,2002-10-03T02:00:00Z,27.9396,-96.8429,2.0,228.3990166,53.54441241,-99999.0,'11111222,11111222,99999999' 
TABS,ioos:station:wmo:42048:1,2002-10-03T02:30:00Z,27.9396,-96.8429,2.0,224.4654091,57.63170829,-99999.0,'11111222,11111222,99999999' 
TABS,ioos:station:wmo:42048:1,2002-10-03T03:00:00Z,27.9396,-96.8429,2.0,221.7113748,60.28110898,-99999.0,'11111222,11111222,99999999' 
TABS,ioos:station:wmo:42048:1,2002-10-03T03:30:00Z,27.9396,-96.8429,2.0,221.0930652,62.89479788,-99999.0,'11111222,11111222,99999999' 
TABS,ioos:station:wmo:42048:1,2002-10-03T04:00:00Z,27.9396,-96.8429,2.0,219.1559017,65.97652007,-99999.0,'11111222,11111222,99999999' 
TABS,ioos:station:wmo:42048:1,2002-10-03T04:30:00Z,27.9396,-96.8429,2.0,217.5336077,67.4785314,-99999.0,'11111222,11111222,99999999' 
TABS,ioos:station:wmo:42048:1,2002-10-03T05:00:00Z,27.9396,-96.8429,2.0,215.6102102,72.25145327,-99999.0,'11111222,11111222,99999999' 
TABS,ioos:station:wmo:42048:1,2002-10-03T05:30:00Z,27.9396,-96.8429,2.0,214.0689204,71.67160805,-99999.0,'11111222,11111222,99999999' 
TABS,ioos:station:wmo:42048:1,2002-10-03T06:00:00Z,27.9396,-96.8429,2.0,214.1088028,73.95183432,-99999.0,'11111222,11111222,99999999' 
TABS,ioos:station:wmo:42048:1,2002-10-03T06:30:00Z,27.9396,-96.8429,2.0,209.7528693,77.35798407,-99999.0,'11111222,11111222,99999999' 
TABS,ioos:station:wmo:42048:1,2002-10-03T07:00:00Z,27.9396,-96.8429,2.0,212.0570268,77.19013732,-99999.0,'11111222,11111222,99999999' 
TABS,ioos:station:wmo:42048:1,2002-10-03T07:30:00Z,27.9396,-96.8429,2.0,213.723204,80.81983234,-99999.0,'11111222,11111222,99999999' 
TABS,ioos:station:wmo:42048:1,2002-10-03T08:00:00Z,27.9396,-96.8429,2.0,212.7649447,74.5752888,-99999.0,'11111222,11111222,99999999' 
TABS,ioos:station:wmo:42048:1,2002-10-03T08:30:00Z,27.9396,-96.8429,2.0,215.3299309,74.80700836,-99999.0,'11111222,11111222,99999999' 
TABS,ioos:station:wmo:42048:1,2002-10-03T09:00:00Z,27.9396,-96.8429,2.0,214.660938,76.909136,-99999.0,'11111222,11111222,99999999' 
TABS,ioos:station:wmo:42048:1,2002-10-03T09:30:00Z,27.9396,-96.8429,2.0,219.3002269,76.11448023,-99999.0,'11111222,11111222,99999999' 
TABS,ioos:station:wmo:42048:1,2002-10-03T10:00:00Z,27.9396,-96.8429,2.0,217.9849836,79.72910698,-99999.0,'11111222,11111222,99999999' 
TABS,ioos:station:wmo:42048:1,2002-10-03T10:30:00Z,27.9396,-96.8429,2.0,220.010661,78.21951291,-99999.0,'11111222,11111222,99999999' 
TABS,ioos:station:wmo:42048:1,2002-10-03T11:00:00Z,27.9396,-96.8429,2.0,222.449662,82.64362528,-99999.0,'11111222,11111222,99999999' 
TABS,ioos:station:wmo:42048:1,2002-10-03T11:30:00Z,27.9396,-96.8429,2.0,221.5479385,78.10020807,-99999.0,'11111222,11111222,99999999' 
TABS,ioos:station:wmo:42048:1,2002-10-03T12:00:00Z,27.9396,-96.8429,2.0,216.4889778,77.97572058,-99999.0,'11111222,11111222,99999999' 
TABS,ioos:station:wmo:42048:1,2002-10-03T12:30:00Z,27.9396,-96.8429,2.0,222.4087955,78.83814432,-99999.0,'11111222,11111222,99999999' 
TABS,ioos:station:wmo:42048:1,2002-10-03T13:00:00Z,27.9396,-96.8429,2.0,221.3714782,74.52994365,-99999.0,'11111222,11111222,99999999' 
TABS,ioos:station:wmo:42048:1,2002-10-03T13:30:00Z,27.9396,-96.8429,2.0,219.9549073,71.08503781,-99999.0,'11111222,11111222,99999999' 
TABS,ioos:station:wmo:42048:1,2002-10-03T14:00:00Z,27.9396,-96.8429,2.0,223.8882278,71.08467697,-99999.0,'11111222,11111222,99999999' 
TABS,ioos:station:wmo:42048:1,2002-10-03T14:30:00Z,27.9396,-96.8429,2.0,226.7974706,77.08429801,-99999.0,'11111222,11111222,99999999' 
TABS,ioos:station:wmo:42048:1,2002-10-03T15:00:00Z,27.9396,-96.8429,2.0,228.9528185,91.07992205,-99999.0,'11111222,11111222,99999999' 
TABS,ioos:station:wmo:42048:1,2002-10-03T15:30:00Z,27.9396,-96.8429,2.0,229.3577051,94.72921619,-99999.0,'11111222,11111222,99999999' 
TABS,ioos:station:wmo:42048:1,2002-10-03T16:00:00Z,27.9396,-96.8429,2.0,224.8141839,100.466258,-99999.0,'11111222,11111222,99999999' 
TABS,ioos:station:wmo:42048:1,2002-10-03T16:30:00Z,27.9396,-96.8429,2.0,223.4674249,99.16475836,-99999.0,'11111222,11111222,99999999' 
TABS,ioos:station:wmo:42048:1,2002-10-03T17:00:00Z,27.9396,-96.8429,2.0,218.5357965,92.58314533,-99999.0,'11111222,11111222,99999999' 
TABS,ioos:station:wmo:42048:1,2002-10-03T17:30:00Z,27.9396,-96.8429,2.0,219.9208521,93.93316773,-99999.0,'11111222,11111222,99999999' 
TABS,ioos:station:wmo:42048:1,2002-10-03T18:00:00Z,27.9396,-96.8429,2.0,219.2495428,90.69022715,-99999.0,'11111222,11111222,99999999' 
TABS,ioos:station:wmo:42048:1,2002-10-03T18:30:00Z,27.9396,-96.8429,2.0,217.2449006,82.74577512,-99999.0,'11111222,11111222,99999999' 
TABS,ioos:station:wmo:42048:1,2002-10-03T19:00:00Z,27.9396,-96.8429,2.0,218.1044625,78.51223408,-99999.0,'11111222,11111222,99999999' 
TABS,ioos:station:wmo:42048:1,2002-10-03T19:30:00Z,27.9396,-96.8429,2.0,215.9117348,55.51175731,-99999.0,'11111222,11111222,99999999' 
TABS,ioos:station:wmo:42048:1,2002-10-03T20:00:00Z,27.9396,-96.8429,2.0,218.4421739,39.9370417,-99999.0,'11111222,11111222,99999999' 
TABS,ioos:station:wmo:42048:1,2002-10-03T20:30:00Z,27.9396,-96.8429,2.0,225.3799596,31.96193048,-99999.0,'11111222,11111222,99999999' 
TABS,ioos:station:wmo:42048:1,2002-10-03T21:00:00Z,27.9396,-96.8429,2.0,236.6176679,21.66412934,-99999.0,'11111222,11111222,99999999' 
TABS,ioos:station:wmo:42048:1,2002-10-03T21:30:00Z,27.9396,-96.8429,2.0,245.0671095,18.05239596,-99999.0,'11111222,11111222,99999999' 
TABS,ioos:station:wmo:42048:1,2002-10-03T22:00:00Z,27.9396,-96.8429,2.0,274.3708476,20.20876295,-99999.0,'11111222,11111222,99999999' 
TABS,ioos:station:wmo:42048:1,2002-10-03T22:30:00Z,27.9396,-96.8429,2.0,283.4626507,26.63174797,-99999.0,'11111222,11111222,99999999' 
TABS,ioos:station:wmo:42048:1,2002-10-03T23:00:00Z,27.9396,-96.8429,2.0,269.1903724,28.32282472,-99999.0,'11111222,11111222,99999999' 
TABS,ioos:station:wmo:42048:1,2002-10-03T23:30:00Z,27.9396,-96.8429,2.0,262.1598428,41.86125894,-99999.0,'11111222,11111222,99999999' 
TABS,ioos:station:wmo:42048:1,2002-10-04T00:00:00Z,27.9396,-96.8429,2.0,266.5740468,41.00326085,-99999.0,'11111222,11111222,99999999' 
TABS,ioos:station:wmo:42048:1,2002-10-04T00:30:00Z,27.9396,-96.8429,2.0,272.0722716,34.02224125,-99999.0,'11111222,11111222,99999999' 
TABS,ioos:station:wmo:42048:1,2002-10-04T01:00:00Z,27.9396,-96.8429,2.0,271.2315578,36.76848787,-99999.0,'11111222,11111222,99999999' 
TABS,ioos:station:wmo:42048:1,2002-10-04T01:30:00Z,27.9396,-96.8429,2.0,278.4704049,31.70581177,-99999.0,'11111222,11111222,99999999' 
TABS,ioos:station:wmo:42048:1,2002-10-04T02:00:00Z,27.9396,-96.8429,2.0,276.7868654,32.32649687,-99999.0,'11111222,11111222,99999999' 
TABS,ioos:station:wmo:42048:1,2002-10-04T02:30:00Z,27.9396,-96.8429,2.0,272.5834355,30.621112,-99999.0,'11111222,11111222,99999999' 
TABS,ioos:station:wmo:42048:1,2002-10-04T03:00:00Z,27.9396,-96.8429,2.0,269.5152834,27.21097205,-99999.0,'11111222,11111222,99999999' 
TABS,ioos:station:wmo:42048:1,2002-10-04T03:30:00Z,27.9396,-96.8429,2.0,264.2123497,26.77647475,-99999.0,'11111222,11111222,99999999' 
TABS,ioos:station:wmo:42048:1,2002-10-04T04:00:00Z,27.9396,-96.8429,2.0,254.041356,30.58882476,-99999.0,'11111222,11111222,99999999' 
TABS,ioos:station:wmo:42048:1,2002-10-04T04:30:00Z,27.9396,-96.8429,2.0,241.9205202,30.46588256,-99999.0,'11111222,11111222,99999999' 
TABS,ioos:station:wmo:42048:1,2002-10-04T05:00:00Z,27.9396,-96.8429,2.0,241.3185233,22.64892492,-99999.0,'11111222,11111222,99999999' 
TABS,ioos:station:wmo:42048:1,2002-10-04T05:30:00Z,27.9396,-96.8429,2.0,232.4863941,20.83931381,-99999.0,'11111222,11111222,99999999' 
TABS,ioos:station:wmo:42048:1,2002-10-04T06:00:00Z,27.9396,-96.8429,2.0,234.5455179,15.94686803,-99999.0,'11111222,11111222,99999999' 
TABS,ioos:station:wmo:42048:1,2002-10-04T06:30:00Z,27.9396,-96.8429,2.0,226.806957,11.65891933,-99999.0,'11111222,11111222,99999999' 
TABS,ioos:station:wmo:42048:1,2002-10-04T07:00:00Z,27.9396,-96.8429,2.0,221.3355086,10.06856991,-99999.0,'11111222,11111222,99999999' 
TABS,ioos:station:wmo:42048:1,2002-10-04T07:30:00Z,27.9396,-96.8429,2.0,184.7788651,9.242131789,-99999.0,'11133222,11111222,99999999' 
TABS,ioos:station:wmo:42048:1,2002-10-04T08:00:00Z,27.9396,-96.8429,2.0,199.4858735,6.89492567,-99999.0,'11133222,11111222,99999999' 
TABS,ioos:station:wmo:42048:1,2002-10-04T08:30:00Z,27.9396,-96.8429,2.0,192.7572919,5.434151268,-99999.0,'11133222,11111222,99999999' 
TABS,ioos:station:wmo:42048:1,2002-10-04T09:00:00Z,27.9396,-96.8429,2.0,196.3646694,7.879213159,-99999.0,'11133222,11111222,99999999' 
TABS,ioos:station:wmo:42048:1,2002-10-04T09:30:00Z,27.9396,-96.8429,2.0,176.8685754,4.576832966,-99999.0,'11133222,11111222,99999999' 
TABS,ioos:station:wmo:42048:1,2002-10-04T10:00:00Z,27.9396,-96.8429,2.0,158.5492489,6.672158571,-99999.0,'11133222,11111222,99999999' 
TABS,ioos:station:wmo:42048:1,2002-10-04T10:30:00Z,27.9396,-96.8429,2.0,147.5736031,8.802459883,-99999.0,'11133222,11111222,99999999' 
TABS,ioos:station:wmo:42048:1,2002-10-04T11:00:00Z,27.9396,-96.8429,2.0,150.4586948,6.976997922,-99999.0,'11133222,11111222,99999999' 
TABS,ioos:station:wmo:42048:1,2002-10-04T11:30:00Z,27.9396,-96.8429,2.0,154.0696293,8.072700911,-99999.0,'11133222,11111222,99999999' 
TABS,ioos:station:wmo:42048:1,2002-10-04T12:00:00Z,27.9396,-96.8429,2.0,141.9444499,11.69650375,-99999.0,'11111222,11111222,99999999' 
TABS,ioos:station:wmo:42048:1,2002-10-04T12:30:00Z,27.9396,-96.8429,2.0,148.4817046,11.34344745,-99999.0,'11111222,11111222,99999999' 
TABS,ioos:station:wmo:42048:1,2002-10-04T13:00:00Z,27.9396,-96.8429,2.0,130.0798306,9.893523134,-99999.0,'11133222,11111222,99999999' 
TABS,ioos:station:wmo:42048:1,2002-10-04T13:30:00Z,27.9396,-96.8429,2.0,125.7099271,13.14069252,-99999.0,'11111222,11111222,99999999' 
TABS,ioos:station:wmo:42048:1,2002-10-04T14:00:00Z,27.9396,-96.8429,2.0,121.4634192,11.20785885,-99999.0,'11111222,11111222,99999999' 
TABS,ioos:station:wmo:42048:1,2002-10-04T14:30:00Z,27.9396,-96.8429,2.0,128.6597179,11.58965487,-99999.0,'11111222,11111222,99999999' 
TABS,ioos:station:wmo:42048:1,2002-10-04T15:00:00Z,27.9396,-96.8429,2.0,127.9197114,12.3340707,-99999.0,'11111222,11111222,99999999' 
TABS,ioos:station:wmo:42048:1,2002-10-04T15:30:00Z,27.9396,-96.8429,2.0,113.3146111,14.90724991,-99999.0,'11111222,11111222,99999999' 
TABS,ioos:station:wmo:42048:1,2002-10-04T16:00:00Z,27.9396,-96.8429,2.0,126.4933932,17.35237448,-99999.0,'11111222,11111222,99999999' 
TABS,ioos:station:wmo:42048:1,2002-10-04T16:30:00Z,27.9396,-96.8429,2.0,121.0882643,17.35226786,-99999.0,'11111222,11111222,99999999' 
TABS,ioos:station:wmo:42048:1,2002-10-04T17:00:00Z,27.9396,-96.8429,2.0,117.3520118,15.95361401,-99999.0,'11111222,11111222,99999999' 
TABS,ioos:station:wmo:42048:1,2002-10-04T17:30:00Z,27.9396,-96.8429,2.0,121.3416103,16.3801862,-99999.0,'11111222,11111222,99999999' 
TABS,ioos:station:wmo:42048:1,2002-10-04T18:00:00Z,27.9396,-96.8429,2.0,121.7261991,13.27345095,-99999.0,'11111222,11111222,99999999' 
TABS,ioos:station:wmo:42048:1,2002-10-04T18:30:00Z,27.9396,-96.8429,2.0,117.4282345,14.54503695,-99999.0,'11111222,11111222,99999999' 
TABS,ioos:station:wmo:42048:1,2002-10-04T19:00:00Z,27.9396,-96.8429,2.0,113.6747488,15.16641685,-99999.0,'11111222,11111222,99999999' 
TABS,ioos:station:wmo:42048:1,2002-10-04T19:30:00Z,27.9396,-96.8429,2.0,106.8874369,14.28605614,-99999.0,'11111222,11111222,99999999' 